Location: Bidart
(43.4376°N, 1.5913°W)
Time: 05:59:55
(UTC+00:00)

H-2A DEB - Pass Details

Date: 20 April 2026
Orbit: 584 x 592 km, 98.2° (Epoch: 15 May)

Event Time Altitude Azimuth Distance (km) Brightness Sun altitude
Exits shadow 00:43:14 17° 38° (NE) 1,523 ? -34.4°
Drops below altitude 10° 00:44:51 10° 18° (NNE) 1,930 ? -34.4°
Sets 00:47:27 0° 2° (N) 2,838 ? -34.3°
